Погода в Новоселенгинске

Погода в Новоселенгинске : погода сейчас, прогноз погоды и архив. Всё, что Вы хотите узнать о погоде в Новоселенгинске!

Поиск расширенной информации на нашем сайте:

Другие новости

Новости СМИ2

Главная страница сайта

Новости сайта

03.07.2017

Напоминаем, что на нашем специализированном сайте Метеоцентр.Азия вы можете получить высокодетализированные автоматические прогнозы погоды по пунктам России, СНГ и мира в авиационном формате (включающие направление и скорость ветра, видимость, явления погоды, количество и форму облачности, нижнюю и верхнюю границу облачности).


Погода в Новоселенгинске - сегодня

Время (UTC), дата Ветер
(°,м/с) 
Видим.   Явления Облачность Т
(°С)
Тd
(°С)
f(%) Тe
(°С)
Pmin
(гПа)
dP
(гПа)
Po
(мм)
O2
(г/м3)
Тmin Tmax R s Состояние
почвы
03 18.05.18 200 (Ю) 20000 м    10/0 верхняя 
[Cs]
+23.1 -1.9 19 +23  999.1  -2.1  703  261           
06 18.05.18 330 (СЗ) 20000 м    10/0 средняя, верхняя 
[Ac lent|Ci fib]
+24.6 -5.1 14 +25  998.4  -0.3  703  260           
12 18.05.18 350 (С) 7-10{15}  20000 м    5/3 1000 м средняя, верхняя 
[Sc|Ac trans|Ci fib]
+16.4 -0.8 31 +16  1002.6  1.6  705  268    +24.7       
18 18.05.18 350 (С) 4{11}  50000 м    ясно 
+10.5 -0.4 47 +10  1005.6  0.4  706  274           
21 18.05.18 360 (С) 20000 м    6/1 1000 м верхняя 
[Sc|Ci fib]
+8.9 -0.4 52 +7  1007.7  1.6  707  276           
00 19.05.18 020 (С) 7-10{10}  20000 м    8/1 1000 м верхняя 
[Sc|Ci fib]
+11.7 -0.9 42 +10  1009.6  2.4  709  274  +8.2        сухая 
09 19.05.18 060 (СВ) 4{11}  20000 м    3/0 верхняя 
[Ci fib]
+17.4 -0.7 29 +18  1008.1  -1.4  709  268           
15 19.05.18 360 (С) 50000 м    3/0 верхняя 
[Ci fib]
+9.7 +0 51 +10  1008.9  -0.2  708  275           
18 19.05.18 050 (СВ) 50000 м    5/0 средняя, верхняя 
[Ac trans|Ci fib]
+10 +0.7 52 +9  1007.3  -1.4  707  275           
21 19.05.18 070 (В) 20000 м    10/0 средняя, верхняя 
[Ac trans|Ci fib]
+7.7 +0.2 59 +8  1006.7  -1  706  277           
00 20.05.18 060 (СВ) 20000 м    6/3 600 м кучево-дожд., средняя, верхняя 
[Cb cap|Ac trans|Ci fib]
+12.3 -0.7 41 +12  1004.8  -0.8  705  272  +6.2        сухая 
06 20.05.18 350 (С) 13-16{17}  20000 м    ясно 
+13.6 -2 34 +12  1007.6  2.1  708  272           
12 20.05.18 340 (С) 13-19{22}  20000 м    10/3 1000 м средняя 
[Sc|Ac As]
+4 -3.6 58 -1  1014.9  3.1  711  283    +17.4       
15 20.05.18 350 (С) 6{20}  50000 м    10/5 600 м кучево-дожд., средняя 
[Cb cap|Ac und]
+2 -0.6 83 -1  1018.5  2.8  713  285           
21 20.05.18 330 (СЗ) 20000 м  {ливн. осадки}  10/3 1000 м кучево-дожд., средняя 
[Cb cap|Ac As]
+2.1 -2.4 72 1020.2  0.5  715  286           
00 21.05.18 360 (С) 20000 м  {ливн. осадки}  10/3 1000 м средняя, верхняя 
[Sc|Ac trans|Ci fib]
+4 -3 60 +3  1020.2  0.5  715  284  +0.2    0.8    влажная 
12 21.05.18 330 (СЗ) 7-10{13}  20000 м    10/1 600 м кучево-дожд., средняя, верхняя 
[Cb cap|Ac lent|Ci fib]
+7.1 -11.6 25 +5  1016.6  -0.1  713  281    +9.7       
15 21.05.18 350 (С) 3{10}  50000 м    8/0 средняя, верхняя 
[Ac lent|Ci fib]
+2.2 -8.1 46 +1  1017.6  0.1  713  286           
18 21.05.18 290 (З) 3{10}  50000 м    4/0 средняя, верхняя 
[Ac lent|Ci fib]
+1.2 -3.1 73 1017.2  -0.6  712  286           
21 21.05.18 250 (З) 20000 м    10/3 1000 м средняя 
[Sc|Ac As]
+0.3 -3.9 73 -1  1015.9  -1.4  711  287           
00 22.05.18 220 (ЮЗ) 20000 м    9/4 1000 м средняя, верхняя 
[Sc|Ac trans|Ci fib]
+4 -3.8 57 +2  1013.2  -1.6  710  282  -0        сухая 
06 22.05.18 280 (З) 5{13}  20000 м    10/3 1000 м средняя, верхняя 
[Sc|Ac trans|Ci fib]
+13.7 -9.7 19 +13  1003.3  -3.9  705  271           
12 22.05.18 030 (СВ) 5{12}  20000 м    10/4 600 м кучево-дожд., средняя 
[Cb cap|Ac As]
+11 +0.3 48 +10  1000.4  -0.9  702  272    +14.8       
15 22.05.18 260 (З) 50000 м  {ливн. осадки}  10/3 600 м кучево-дожд., средняя 
[Cb cap|Ac As]
+10.3 +3.7 64 +10  999.4  -1  701  272           
18 22.05.18 090 (В) 50000 м  {ливн. осадки}  10/3 1000 м средняя 
[Sc|Ac trans]
+10.4 +5.3 71 +12  998.4  -0.9  701  271           
Время (UTC), дата Ветер
(°,м/с) 
Видим.   Явления Облачность Т
(°С)
Тd
(°С)
f(%) Тe
(°С)
Pmin
(гПа)
dP
(гПа)
Po
(мм)
O2
(г/м3)
Тmin Tmax R s Состояние
почвы

Для получения пояснительной информации подведите курсор к названию столбца.

ПОГОДА в Новоселенгинске - архив

Всё, что Вы хотите узнать о погоде в Новоселенгинске - удобно и подробно!

Выберите нужную дату (начиная с 1 января 2015* года) и нажмите кнопку "Найти".
Будут отображены архивные сводки погоды по пункту Новоселенгинск, начиная с указанной даты.


Отображать данные в формате CSV (для использования в таблицах Excel)


Внимание! Наш архив погоды предназначен исключительно для личного некоммерческого использования в познавательных целях. Если Вам необходимы официальные справки о состоянии погоды (для производственных, юридических, коммерческих и т.п. целей), обращайтесь в органы Росгидромета.

*Примечание: данная дата относится к архиву по метеостанциям СССР (Россия, СНГ, Балтия).
Архив по метеостанциям Зарубежной Европы и Азии (кроме Китая) хранится 10 дней, по другим регионам земного шара (Китай, Африка, Америка, Австралия, Океания) - 1 день.

Новоселенгинск - район местоположения метеостанции


Название, широта, долгота, высота метеостанции:
Новоселенгинск 51.1°ш. 106.6°д. 556 м над ур. моря [Российская Федерация]

Дополнительная информация

В oтличие oт бoльшинства пoгoдных сайтoв мы публикуем пoдрoбную метеoинфoрмацию в детальнoм прoфессиoнальнoм фoрмате.

Характеристики температуры и влажнoсти вoздуха измеряются на высoте 2 м в тени вдали oт зданий и деревьев.
Скoрoсть ветра измеряется на высoте 10 м (на урoвне рoста челoвека скoрoсть ветра ниже в 1.5-2 раза). Если метеoстанция нахoдится в гoрoде или в лесу, тo скoрoсть ветра занижена на 2-4 м/с пo сравнению с oткрытым местoм. Скoрoсть ветра над акватoриями крупных рек и oзёр, а также на вершинах хoлмoв на 2-5 м/с выше, чем в oбычных услoвиях.
Атмoсфернoе давление в разных тoчках местнoсти мoжет значительнo oтличаться oт давления на метеoстанции, в зависимoсти oт услoвий рельефа (при пoдъёме на 10 м давление пoнижается примернo на 1 мм рт.ст.).